sat.trackr.live / text

‹ back to catalog

STARLINK-2712

NORAD 48674 · 2021-044AN

PAYLOAD ACTIVE UNKNOWN

§ Identity

Operator
Country
US
Launch date
2021-05-26
Launch site
AFETR
Launch vehicle
Mass (kg)
RCS (m²)

Purposes: comms

External: N2YO · Heavens-Above · Gunter

§ Orbital elements

Epoch: 2026-09-19T19:39:15.165792Z

Period
94.01 min
Inclination
53.1606°
Eccentricity
0.0001196
Mean motion
15.31686717 rev/d
Perigee alt
470.0 km
Apogee alt
471.6 km
Semi-major
6,848.9 km
B*
6.8716e-7
RAAN
292.1051°
Arg perigee
100.6802°
Mean anomaly
259.4334°
Rev number
29,353

§ Raw data

STARLINK-27121 48674U 21044AN  26262.81892553 -.00000344  00000+0  68716-6 0  99942 48674  53.1606 292.1051 0001196 100.6802 259.4334 15.31686717293533

JSON: /api/v1/satellites/48674 · /tle

For live sub-satellite position, see the globe view (requires WebGL).

§ Visibility from observer

Set your observer location to see the next 7 days of passes ≥ 10°. The values pass through the URL so the page stays shareable.

No JS? Fill the form by hand. The geolocation button needs JavaScript.